Kezdőlap
METAR-TAF:

METAR-TAF

Repülőterek :

Comanche National Grassland

Springfield, Colorado, Amerikai Egyesült Államok

földrajzi szélesség: 37-17N, földrajzi hosszúság: 102-37W, magasság: 1335 m

Jelenlegi meteorológiai megfigyelések

A jelentés 53 perccel ezelõtt készült, 00:56 UTC
Keleti szél 10 kt
Hőmérséklet 24°C
Páratartalom 50%
Légköri nyomás 1021 hPa

METAR: KSPD 230056Z AUTO 10010KT 24/13 A3015 RMK AO1 WSHFT 0004 SLP155 T02390133 $

Idő: 19:49 (01:49 UTC)


TAF: hiányzik

Meteorológiai megfigyelések és előrejelzések több, mint 4000 repülőtéren (METAR és TAF jelentéseket).

A térképen piros és sárga pontok jelzik az elérhető meteorológiai állomásokat.

Mozgassa az egeret a pont fölött, hogy megjelenjen az állomás neve.

Azután kattintson az időjárási megfigyelések és előrejelzések megtekintéséhez.

A térkép megváltoztatása: kattintson a fekete keresztel jelölt zöld gombra ráközelítéshez, a vonallal jelölt zöld gombra távolításhoz, vagy a zöld nyilakra a szomszédos térképek eléréséhez.


METAR-TAF: